Location: La Landriais
(47.7973°N, 1.6642°W)
Time: 03:23:49
(UTC+00:00)

Daily predictions for brighter satellites

Satellite Brightness Start Highest point End
(mag) Time Altitude Azimuth Time Altitude Azimuth Time Altitude Azimuth
Cosmos 2344 4.3 02:37:40 46° E 02:37:40 46° E 02:43:48 10° NE
USA 234 3.9 02:54:44 10° NE 02:59:22 49° NE 02:59:22 49° NE
ADEOS Rocket 4.4 02:57:57 10° ESE 03:02:40 31° ENE 03:07:33 10° N
IDEFIX/ARIANE 42P 4.4 03:16:54 10° NNE 03:18:52 24° NNE 03:18:52 24° NNE
MSX 4.3 03:27:34 10° NNE 03:32:03 54° NE 03:32:03 54° NE
Cosmos 1833 Rocket 4.1 03:33:51 26° SE 03:35:49 33° ESE 03:40:49 10° NE
Cosmos 2279 Rocket 4.4 03:31:48 10° N 03:43:01 17° SSE 03:44:13 10° SSE
NOSS 3-2 (C) 3.4 03:43:22 76° ENE 03:43:22 76° ENE 03:49:28 10° NE
CENTAUR R/B 2.4 03:50:12 88° SSW 03:50:17 90° ESE 03:57:29 10° NE
Cosmos 2369 4.4 03:49:30 29° N 03:52:11 52° ENE 03:57:41 10° SE
Cosmos 2082 Rocket 4.0 03:54:02 10° SSE 03:58:47 29° ESE 04:03:32 10° NE
PSLV R/B 4.1 04:01:51 10° NNE 04:05:31 56° ENE 04:05:31 56° ENE
ISS -1.5 04:09:06 25° E 04:09:06 25° E 04:10:49 10° ENE
CZ-2C R/B 2.6 04:02:49 10° NNE 04:07:49 69° ESE 04:08:51 53° SSE
ARIANE 5 R/B 4.4 04:04:10 10° N 04:05:39 18° N 04:05:39 18° N
Lacrosse 4 Rocket 2.4 04:18:22 38° NNE 04:18:22 38° NNE 04:21:00 10° NNE
Cosmos 1697 Rocket 2.6 04:16:51 37° NNW 04:19:13 90° WSW 04:24:54 10° SSE
ADEOS II 4.4 04:16:18 10° NNW 04:16:21 10° NNW 04:16:21 10° NNW
COSMOS 2406 3.1 04:21:38 50° SSW 04:23:12 87° WNW 04:28:55 10° NNE
Lacrosse 5 rocket 1.6 04:25:46 56° E 04:25:46 56° E 04:29:00 10° ENE
Meteor 2-5 Rocket 4.3 04:21:50 10° S 04:27:25 60° E 04:33:10 10° NNE
USA 238 DEB 4.0 04:28:30 42° WNW 04:29:47 47° NW 04:36:31 10° NE
FENGYUN 3A 4.5 04:24:29 10° NNE 04:29:49 52° E 04:35:06 10° S
USA 238 4.0 04:28:35 42° WNW 04:29:53 47° NW 04:36:37 10° NE
NOSS 3-2 (A) 4.0 04:31:50 38° NW 04:32:46 40° NNW 04:39:10 10° NE
PAYLOAD A 4.0 04:29:19 10° N 04:34:22 64° WNW 04:35:51 45° SW
ATLAS 3B R/B 2.9 04:32:59 15° SSW 04:38:33 66° ESE 04:45:08 10° NE
Cosmos 1726 Rocket 4.1 04:34:48 10° N 04:39:14 61° ENE 04:43:39 10° SSE
ERS-2 2.3 04:36:17 10° SSE 04:39:17 59° S 04:39:17 59° S
Cosmos 967 Rocket 4.3 04:37:13 24° NW 04:41:15 78° WSW 04:47:30 10° SSE
Cosmos 1980 Rocket 2.3 04:36:25 10° NNW 04:42:01 76° ENE 04:47:36 10° SSE
Abrixas rocket 3.3 04:43:59 34° SE 04:43:59 34° SE 04:45:48 10° ESE
USA 234 3.9 04:37:45 10° ENE 04:43:50 43° N 04:46:42 28° WNW
Cosmos 2228 2.9 04:40:01 10° N 04:44:24 89° W 04:48:48 10° S
Cosmos 1092 Rocket 4.3 04:40:38 10° S 04:46:44 70° E 04:52:58 10° NNE
Geosat 3.9 04:42:32 10° SSE 04:47:32 71° WSW 04:51:08 19° NW
ADEOS Rocket 3.0 04:42:53 10° S 04:48:05 43° W 04:53:27 10° NNW
Cosmos 1269 Rocket 4.4 04:49:47 39° WNW 04:50:25 41° WNW 04:55:27 10° N
Cosmos 2344 4.0 04:47:42 31° W 04:50:48 46° NNW 04:58:58 10° NE
ADEOS 3.7 04:45:41 10° NNE 04:50:57 79° ESE 04:56:11 10° SSW
Nadezhda 4 Rocket 3.8 04:44:52 10° SSW 04:50:58 71° W 04:57:08 10° N
CZ-3 R/B 4.3 04:35:58 17° WSW 04:51:42 32° SSW 04:59:43 10° SE
Aureole 3 4.3 04:48:46 10° N 04:52:50 58° E 04:57:59 10° SSE
Cosmos 1606 Rocket 3.4 04:50:38 10° NNW 04:55:07 75° W 04:59:35 10° S
Cosmos 1400 Rocket 2.9 04:51:47 10° N 04:55:45 75° ENE 04:59:38 10° SSE
SAR-Lupe-1 4.3 04:52:25 10° SSE 04:55:58 70° ENE 04:59:32 10° N
SJ-6F 4.3 04:52:31 10° N 04:56:36 72° WNW 05:00:42 10° SSW
CZ-4B R/B 4.3 04:52:24 10° NNE 04:56:37 64° ESE 05:00:35 10° S
Cosmos 2360 4.2 04:55:24 16° NW 04:59:53 57° WSW 05:05:25 10° S
IDEFIX/ARIANE 42P 4.3 04:57:47 10° NNW 04:59:40 16° NW 04:59:40 16° NW
TELKOM 3 4.0 05:01:47 44° SW 05:02:36 64° SSE 05:06:25 10° ENE
COSMO-SKYMED 1 2.8 05:01:56 10° SSE 05:06:14 70° ENE 05:10:35 10° N
CZ-4B R/B 1.6 05:05:34 10° S 05:08:55 47° W 05:10:16 29° NW
Cosmos 1300 2.6 05:05:32 10° NNW 05:09:19 59° W 05:13:03 10° S
ARGOS Delta rocket 4.3 05:04:33 10° NNE 05:10:00 78° E 05:15:29 10° S
Cosmos 220 Rocket 4.4 05:09:17 25° NW 05:11:18 40° WSW 05:15:26 10° S
Cosmos 2278 3.7 05:06:51 10° NNW 05:12:27 64° WSW 05:18:01 10° SSE
ALOS 2.2 05:07:59 10° N 05:12:39 69° WNW 05:17:17 10° SSW
Cosmos 2322 Rocket 3.6 05:08:32 10° NNW 05:13:50 38° NE 05:19:05 10° ESE
Meteor 2-10 Rocket 4.2 05:08:59 10° N 05:13:56 56° ENE 05:18:55 10° SSE
Cosmos 1689 Rocket 2.0 05:12:40 10° SSE 05:15:35 80° E 05:18:32 10° N
Cosmos 1626 2.6 05:14:34 29° WSW 05:15:47 37° WNW 05:19:16 10° N
SL-14 R/B 3.4 05:12:06 10° SSW 05:15:58 49° WNW 05:19:54 10° N
Cosmos 1833 Rocket 3.0 05:15:37 18° WSW 05:19:36 45° NW 05:25:02 10° NNE
Cosmos 1992 Rocket 4.3 05:14:54 10° NW 05:19:50 44° WSW 05:24:45 10° S
deb Chang Zheng 4 3.5 05:18:29 10° N 05:22:41 61° WNW 05:26:53 10° SSW
Intercosmos 24 4.4 05:20:16 10° NNW 05:23:40 30° W 05:26:48 10° SSW
Cosmos 2084 3.7 05:19:38 10° SSW 05:23:57 74° SE 05:28:22 10° NE
METEOR-M 4.1 05:20:20 10° N 05:25:40 70° WNW 05:30:58 10° SSW
Cosmos 1315 Rocket 3.5 05:23:26 10° N 05:27:32 60° ENE 05:31:37 10° SSE
SJ-12 3.9 05:24:18 10° NNE 05:28:26 86° WNW 05:32:32 10° SSW
Cosmos 2058 Rocket 3.0 05:25:09 10° NNW 05:29:39 65° W 05:34:03 10° S
SL-19 R/B 3.4 05:27:09 10° N 05:29:56 59° WNW 05:32:46 10° SSW
Elektron 1 3.6 05:27:38 16° SW 05:29:59 78° NW 05:32:56 10° NE
SKYMED 3 4.5 05:25:58 10° S 05:30:16 67° WSW 05:34:37 10° NNW
Okean 1-7 Rocket 3.6 05:26:09 10° S 05:30:42 83° W 05:35:15 10° N
Cosmos 1484 Rocket 3.2 05:28:23 10° N 05:31:58 37° WNW 05:35:29 10° SW
H-2A R/B 4.1 05:30:47 10° NNE 05:34:27 43° E 05:38:08 10° S
NOSS 3-2 (C) 4.4 05:30:50 18° WNW 05:34:35 32° NNW 05:40:42 10° NE
Cosmos 1428 Rocket 4.4 05:29:23 10° SSW 05:35:37 73° W 05:41:48 10° N
Cosmos 1553 Rocket 4.0 05:30:49 10° N 05:36:59 88° E 05:43:03 10° S
Cosmos 1461 3.6 05:34:15 15° WSW 05:37:52 43° NW 05:42:25 10° NNE
Meteor 1-24 Rocket 3.9 05:33:33 10° SSW 05:39:01 50° WNW 05:44:44 10° N
Cosmos 1892 Rocket 3.7 05:35:06 10° SSW 05:39:18 48° WNW 05:43:35 10° N
Meteor PRIRODA 3.5 05:37:23 10° N 05:41:03 82° WNW 05:44:42 10° SSW
USA 290 3.0 05:39:32 14° WSW 05:41:51 31° WNW 05:44:48 10° N
CENTAUR R/B 3.6 05:37:24 16° W 05:41:57 33° NNW 05:48:39 10° NE
CREW DRAGON DEMO-1 DEB 2.7 05:40:30 20° WNW 05:42:28 74° SSW 05:45:28 10° ESE
Cosmos 2082 Rocket 2.4 05:37:08 10° SW 05:42:35 51° WNW 05:48:05 10° NNE
ISS -3.5 05:42:03 18° W 05:44:23 56° NNW 05:47:42 10° ENE
Cosmos 614 Rocket 3.9 05:39:23 10° SSW 05:44:32 85° WNW 05:49:41 10° NNE
CZ-2C R/B 3.8 05:42:05 10° NNW 05:45:30 19° WNW 05:48:13 12° W
Cosmos 2026 Rocket 4.1 05:41:49 10° SSW 05:48:05 58° WNW 05:54:23 10° N
SL-16 R/B 2.4 05:44:29 10° NNW 05:50:12 79° ENE 05:55:53 10° SSE
Cosmos 2251 Rocket 3.9 05:47:13 10° SW 05:52:17 42° WNW 05:57:22 10° NNE
Meteor 2-15 4.4 05:47:22 10° N 05:53:30 83° W 05:59:33 10° S
SKYMED 2 4.1 05:50:21 10° SSW 05:54:24 38° W 05:58:29 10° NNW
PSLV R/B 4.4 05:52:19 10° S 05:56:17 40° W 06:00:18 10° NNW
Lacrosse 4 Rocket 3.3 05:54:42 11° WNW 05:56:23 13° NW 05:58:19 10° N
Meteor 1-31 Rocket 3.7 05:53:14 10° N 05:56:40 29° WNW 06:00:04 10° SW
Cosmos 1455 2.2 05:53:39 10° N 05:57:32 83° W 06:01:24 10° S
[s.n.46727] 2.8 05:56:29 12° W 05:58:53 51° NNW 06:01:35 10° ENE
[s.n.46723] 2.9 05:56:30 12° W 05:58:58 51° NNW 06:01:44 10° ENE
[s.n.46707] 2.8 05:56:40 12° W 05:59:04 51° NNW 06:01:46 10° ENE
[s.n.46708] 2.8 05:56:45 12° W 05:59:10 51° NNW 06:01:52 10° ENE
[s.n.46719] 2.8 05:56:50 12° W 05:59:15 51° NNW 06:01:57 10° ENE
[s.n.46724] 2.8 05:56:55 12° W 05:59:20 50° NNW 06:02:03 10° ENE
[s.n.46687] 2.8 05:57:01 12° W 05:59:25 50° NNW 06:02:07 10° ENE
[s.n.46696] 2.8 05:57:06 12° W 05:59:31 50° NNW 06:02:14 10° ENE
[s.n.46720] 2.8 05:57:11 12° W 05:59:37 50° NNW 06:02:19 10° ENE
[s.n.46676] 2.8 05:57:16 12° W 05:59:42 50° NNW 06:02:24 10° ENE
[s.n.46721] 2.8 05:57:22 12° W 05:59:48 50° NNW 06:02:30 10° ENE
[s.n.46728] 2.8 05:57:27 12° W 05:59:53 50° NNW 06:02:35 10° ENE
[s.n.46690] 2.8 05:57:32 12° W 05:59:58 50° NNW 06:02:41 10° ENE
[s.n.46694] 2.8 05:57:36 12° W 06:00:02 50° NNW 06:02:45 10° ENE
Cosmos 2333 Rocket 4.2 05:55:30 10° N 06:00:06 25° NE 06:04:41 10° E
[s.n.46702] 2.8 05:57:43 12° W 06:00:10 50° NNW 06:02:52 10° ENE
[s.n.46679] 2.8 05:57:46 12° W 06:00:13 50° NNW 06:02:56 10° ENE
[s.n.46704] 2.9 05:57:48 12° W 06:00:19 50° NNW 06:03:04 10° ENE
[s.n.46712] 2.8 05:57:54 12° W 06:00:22 50° NNW 06:03:04 10° ENE
[s.n.46711] 2.9 05:58:03 12° W 06:00:31 50° NNW 06:03:13 10° ENE
[s.n.46684] 2.8 05:58:05 12° W 06:00:32 50° NNW 06:03:15 10° ENE
[s.n.46706] 2.9 05:58:13 12° W 06:00:41 49° NNW 06:03:24 10° ENE
[s.n.46678] 2.9 05:58:11 11° W 06:00:43 50° NNW 06:03:29 10° ENE
[s.n.46677] 2.9 05:58:21 12° W 06:00:50 49° NNW 06:03:32 10° ENE
[s.n.46671] 2.9 05:58:26 12° W 06:00:55 49° NNW 06:03:37 10° ENE
[s.n.46675] 2.9 05:58:31 12° W 06:01:01 49° NNW 06:03:43 10° ENE
[s.n.46674] 2.9 05:58:37 11° W 06:01:06 49° NNW 06:03:49 10° ENE
[s.n.46698] 2.9 05:58:42 11° W 06:01:12 49° NNW 06:03:54 10° ENE
[s.n.46699] 2.9 05:58:43 11° W 06:01:16 50° NNW 06:04:01 10° ENE
[s.n.46715] 2.9 05:58:53 11° W 06:01:23 49° NNW 06:04:05 10° ENE
[s.n.46714] 2.9 05:58:58 11° W 06:01:28 49° NNW 06:04:10 10° ENE
[s.n.46726] 2.9 05:59:03 11° W 06:01:34 49° NNW 06:04:16 10° ENE
[s.n.46703] 2.9 05:59:08 11° W 06:01:39 49° NNW 06:04:21 10° ENE
[s.n.46713] 2.9 05:59:14 11° W 06:01:45 49° NNW 06:04:27 10° ENE
Meteor 2-1 Rocket 4.2 05:56:07 10° NNW 06:01:46 71° W 06:07:30 10° S
YAOGAN 6 3.7 05:58:09 10° NNE 06:01:47 51° E 06:05:20 10° S
[s.n.46717] 2.9 05:59:19 11° W 06:01:50 49° NNW 06:04:33 10° ENE
[s.n.46691] 2.9 05:59:20 11° W 06:01:55 49° NNW 06:04:40 10° ENE
[s.n.46693] 2.9 05:59:30 11° W 06:02:02 49° NNW 06:04:44 10° ENE
[s.n.46672] 2.9 05:59:35 11° W 06:02:07 49° NNW 06:04:49 10° ENE
[s.n.46701] 2.9 05:59:40 11° W 06:02:12 48° NNW 06:04:54 10° ENE
CZ-4B R/B 3.2 05:58:21 10° N 06:02:12 44° WNW 06:06:12 10° SW
[s.n.46685] 2.9 05:59:46 11° W 06:02:18 48° NNW 06:05:00 10° ENE
Cosmos 1697 Rocket 4.2 05:59:16 10° WNW 06:02:21 15° W 06:05:26 10° SW
[s.n.46709] 2.9 05:59:51 11° W 06:02:24 48° NNW 06:05:06 10° ENE
[s.n.46683] 2.9 05:59:55 11° W 06:02:28 48° NNW 06:05:10 10° ENE
Spot 2 4.3 05:57:56 10° NNE 06:02:29 89° ESE 06:07:18 10° SSW
[s.n.46695] 2.9 06:00:01 11° W 06:02:33 48° NNW 06:05:16 10° ENE
[s.n.46688] 2.9 06:00:07 11° W 06:02:40 48° NNW 06:05:23 10° ENE
[s.n.46729] 2.9 06:00:11 11° W 06:02:45 48° NNW 06:05:27 10° ENE
[s.n.46697] 2.9 06:00:14 11° W 06:02:48 48° NNW 06:05:29 10° ENE
[s.n.46725] 2.9 06:00:19 11° W 06:02:53 48° NNW 06:05:34 10° ENE
[s.n.46682] 2.9 06:00:24 11° W 06:02:58 48° NNW 06:05:40 10° ENE
[s.n.46680] 2.9 06:00:30 11° W 06:03:04 48° NNW 06:05:46 10° ENE
[s.n.46718] 2.9 06:00:35 11° W 06:03:10 48° NNW 06:05:52 10° ENE
Cosmos 1626 Rocket 3.5 05:58:47 10° SSW 06:03:15 77° W 06:07:45 10° N
[s.n.46710] 2.9 06:00:40 11° W 06:03:15 48° NNW 06:05:57 10° ENE
[s.n.46673] 2.9 06:00:51 11° W 06:03:26 48° NNW 06:06:09 10° ENE
[s.n.46700] 2.9 06:00:56 11° W 06:03:32 48° NNW 06:06:14 10° ENE
[s.n.46705] 2.9 06:01:02 11° W 06:03:37 48° NNW 06:06:20 10° ENE
[s.n.46692] 2.9 06:01:08 11° W 06:03:44 48° NNW 06:06:26 10° ENE
[s.n.46686] 2.9 06:01:13 11° W 06:03:49 47° NNW 06:06:31 10° ENE
[s.n.46716] 2.9 06:01:18 11° W 06:03:54 47° NNW 06:06:36 10° ENE
[s.n.46722] 2.9 06:01:23 11° W 06:04:00 47° NNW 06:06:42 10° ENE
[s.n.46689] 2.9 06:01:29 10° W 06:04:06 47° NNW 06:06:48 10° NE
[s.n.46681] 2.9 06:01:34 10° W 06:04:11 47° NNW 06:06:53 10° NE
Lacrosse 5 rocket 2.2 06:01:25 11° W 06:04:38 30° NNW 06:08:06 10° NE
Cosmos 1602 Rocket 3.7 06:01:51 10° S 06:06:16 87° E 06:10:46 10° N
Cosmos-2242 4.3 06:03:15 10° N 06:07:29 46° ENE 06:11:42 10° SSE
Okean O Rocket 3.3 06:03:31 10° NNE 06:07:37 40° E 06:11:44 10° SSE
Cosmos 1703 3.7 06:04:26 10° S 06:08:16 68° E 06:12:10 10° NNE
Cosmos 1190 Rocket 4.1 06:06:46 10° SSW 06:12:01 89° ESE 06:17:17 10° NNE
Cosmos 1812 Rocket 3.5 06:08:39 10° NNW 06:12:59 78° W 06:17:18 10° S
PSLV R/B 3.9 06:09:28 10° N 06:13:35 72° WNW 06:17:40 10° SSW
Cosmos 2360 Rocket 2.9 06:08:58 10° NNW 06:14:32 57° ENE 06:20:03 10° SE
